Вернуться в каталог

STARLINK-3103

АктивенСвязьVLEO
NORAD 49177·PAYLOAD·🇺🇸 United States

Запущен Sep 14, 2021 с Vandenberg Space Force Base

Loading…

Ближайшие Пролёты (ближайшие 24 часа)

TLE

СвежийSource: CelesTrak SupGP

Эпоха: Sep 14, 2026, 13:20 UTC

1 49177C 21082AZ  26257.55604167  .00061298  00000+0  51374-2 0  2571
2 49177  70.0002 138.2626 0002810 267.1620 269.9836 14.98297737    13

Отслеживайте STARLINK-3103 в реальном времени с AllMySat

Download on the App Store